EHI
13 11 15 22 31 47 66 80 86 84 76 65 48 30 15 5 1 1 1 0 0 1 1 1 0 0 0 0 0 0 0 0 0 0 0 0 0 0 0 0 0 0 0
9 8 12 18 28 44 63 77 83 81 72 58 41 23 11 4 1 1 0 0 0 0 0 0 0 0 0 0 0 0 0 0 0 0 0 0 0 0 0 0 0 0 0
5 5 8 13 21 35 54 69 74 69 59 44 27 15 8 4 2 1 0 0 0 0 0 0 0 0 0 0 0 0 0 0 0 0 0 0 0 0 0 0 0 0 0
6 6 7 10 17 29 43 54 57 52 43 31 21 13 8 5 2 1 0 0 0 0 0 0 0 0 0 0 0 0 0 0 0 0 0 0 0 0 0 0 0 0 0
12 14 14 14 19 27 34 38 39 36 30 23 16 11 7 4 2 1 0 0 0 0 0 0 0 0 0 0 0 0 0 0 0 0 0 0 0 0 0 0 0 0 0
21 23 24 24 24 25 26 26 26 24 19 14 9 6 4 2 2 1 0 0 0 0 0 0 0 0 0 0 0 0 0 0 0 0 0 0 0 0 0 0 0 0 0
24 25 27 27 23 19 18 18 17 15 10 7 4 3 3 3 2 1 0 0 0 0 0 0 0 0 0 0 0 0 0 0 0 0 0 0 0 0 0 0 0 0 0
22 21 19 17 14 12 11 10 10 8 5 3 3 3 3 2 2 1 0 0 0 0 0 0 0 0 0 0 0 0 0 0 0 0 0 0 0 0 0 0 0 0 0
17 15 11 8 6 6 6 5 5 4 2 1 1 2 1 1 1 0 0 0 0 0 0 0 0 0 0 0 0 0 0 0 0 0 0 0 0 0 0 0 0 0 0
12 10 6 3 2 2 2 2 2 2 1 0 0 0 0 0 0 0 0 0 0 0 0 0 0 0 0 0 0 0 0 0 0 0 0 0 0 0 0 0 0 0 0
8 6 3 1 1 1 1 1 1 1 0 0 0 0 0 0 0 0 0 0 0 0 0 0 0 0 0 0 0 0 0 0 0 0 0 0 0 0 0 0 0 0 0
3 2 1 0 0 0 0 0 0 0 0 0 0 0 0 0 0 0 0 0 0 0 0 0 0 0 0 0 0 0 0 0 0 0 0 0 0 0 0 0 0 0 0
1 0 0 0 0 0 0 0 0 0 0 0 0 0 0 0 0 0 0 0 0 0 0 0 0 0 0 0 0 0 0 0 0 0 0 0 0 0 0 0 0 0 0
0 0 0 0 0 0 0 0 0 0 0 0 0 0 0 0 0 0 0 0 0 0 0 0 0 0 0 0 0 0 0 0 0 0 0 0 0 0 0 0 0 0 0
0 0 0 0 0 0 0 0 0 0 0 0 0 0 0 0 0 0 0 0 0 0 0 0 0 0 0 0 0 0 0 0 0 0 0 0 0 0 0 0 0 0 0
0 0 0 0 0 0 0 0 0 0 0 0 0 0 0 0 0 0 0 0 0 0 0 0 0 0 0 0 0 0 0 0 0 0 0 0 0 0 0 0 0 0 0
0 0 0 0 0 0 0 0 0 0 0 0 0 0 0 0 0 0 0 0 0 0 0 0 0 0 0 0 0 0 0 0 0 0 0 0 0 0 0 0 0 0 0
0 0 0 0 0 0 0 0 0 0 0 0 0 0 0 0 0 0 0 0 0 0 0 0 0 0 0 0 0 0 0 0 0 0 0 0 0 0 0 0 0 0 0
0 0 0 0 0 0 0 0 0 0 0 0 0 0 0 0 0 0 0 0 0 0 0 0 0 0 0 0 0 0 0 0 0 0 0 0 0 0 0 0 0 0 0
0 0 0 0 0 0 0 0 0 0 0 0 0 0 0 0 0 0 0 0 0 0 0 0 0 0 0 0 0 0 0 0 0 0 0 0 0 0 0 0 0 0 0
0 0 0 0 0 0 0 0 0 0 0 0 0 0 0 0 0 0 0 0 0 0 0 0 0 0 0 0 0 0 0 0 0 0 0 0 0 0 0 0 0 0 0
0 0 0 0 0 0 0 0 0 0 0 0 0 0 0 0 0 0 0 0 0 0 0 0 0 0 0 0 0 0 0 0 0 0 0 0 0 0 0 0 0 0 0
0 0 0 0 0 0 0 0 0 0 0 0 0 0 0 0 0 0 0 0 0 0 0 0 0 0 0 0 0 0 0 0 0 0 0 0 0 0 0 0 0 0 0
0 0 0 0 0 0 0 0 0 0 0 0 0 0 0 0 0 0 0 0 0 0 0 0 0 0 0 0 0 0 0 0 0 0 0 0 0 0 0 0 0 0 0
0 0 0 0 0 0 0 0 0 0 0 0 0 0 0 0 0 0 0 0 0 0 0 0 0 0 0 0 0 0 0 0 0 0 0 0 0 0 0 0 0 0 0
0 0 0 0 0 0 0 0 0 0 0 0 0 0 0 0 0 0 0 0 0 0 0 0 0 0 0 0 0 0 0 0 0 0 0 0 0 0 0 0 0 0 0
Wind_Speed
17 11 11 10 9 9 11 11 10 9 8 7 6 5 4 3 3 2 3 4 5 6 6 5 5 5 4 4 5 4 4 3 1 2 2 3 4 5 4 4 5 7 7
11 9 10 9 10 10 10 10 10 9 9 6 5 4 5 3 2 3 3 4 5 6 6 7 6 5 5 5 4 4 3 2 2 2 2 1 1 2 3 3 4 4 4
13 10 9 9 8 8 9 8 8 8 8 9 7 7 5 3 2 2 2 3 4 5 5 6 6 5 5 5 4 5 5 3 2 2 2 2 1 1 1 1 2 2 2
7 6 5 5 5 5 6 7 8 9 10 9 8 8 6 4 3 2 2 3 5 6 6 6 6 6 5 5 4 4 3 4 2 2 3 2 2 1 1 2 2 2 2
1 1 3 4 4 5 7 9 11 10 10 9 8 6 5 4 4 4 5 4 4 5 6 6 6 6 5 6 5 5 4 3 3 2 2 2 2 1 1 3 3 3 3
6 6 7 8 8 8 9 10 11 10 9 9 8 7 7 7 8 6 6 4 4 4 5 6 5 5 5 5 5 4 5 3 3 2 2 2 2 2 2 3 4 5 4
9 10 10 10 10 10 10 10 11 10 8 9 8 7 8 7 7 6 6 5 4 3 4 5 5 4 5 5 5 4 4 3 3 2 1 2 2 2 2 3 4 5 4
12 13 12 12 11 11 10 10 10 9 8 9 8 8 8 6 5 6 5 5 4 4 4 5 5 5 5 5 4 4 3 3 2 2 1 1 1 2 2 3 3 6 5
13 13 13 13 13 12 11 11 11 10 10 10 9 9 8 8 7 7 6 5 5 5 6 6 6 5 5 5 5 4 4 3 3 2 2 1 1 1 2 3 3 4 8
12 13 13 13 13 12 12 12 12 11 11 10 8 8 9 9 8 8 7 7 6 6 6 6 6 6 6 6 5 4 4 5 3 2 2 2 2 2 2 3 3 4 6
11 11 11 12 12 11 11 11 11 11 11 10 10 10 9 9 9 8 8 7 6 6 7 7 7 7 7 6 6 5 5 4 4 3 3 4 4 3 3 3 3 4 5
11 11 11 11 11 11 11 11 10 10 10 10 11 11 10 10 10 10 8 8 8 7 7 7 8 7 7 6 6 5 5 4 4 4 4 5 4 5 5 4 5 6 6
10 10 10 10 10 10 10 10 10 10 10 10 11 11 10 10 10 9 8 8 8 7 7 7 7 7 6 5 5 4 4 4 4 4 5 6 6 6 6 6 6 6 7
9 9 9 9 9 9 9 10 10 9 10 10 11 11 10 9 9 9 8 8 7 7 7 7 6 5 5 4 4 4 4 4 5 5 6 6 7 7 8 7 7 7 8
8 8 8 8 8 9 9 9 9 9 9 10 11 10 8 8 8 8 7 7 7 7 6 6 5 4 3 3 3 3 4 5 7 7 7 7 10 11 8 7 8 8 7
8 8 8 8 8 8 8 8 8 8 8 10 9 8 8 8 7 7 7 6 6 5 5 4 4 3 3 5 6 6 4 6 7 8 8 9 9 10 12 14 14 13 10
8 8 7 7 7 7 7 8 7 7 8 8 8 7 7 7 6 6 6 6 5 4 4 4 4 3 4 6 8 10 6 6 7 7 8 7 8 10 8 11 14 13 14
7 7 7 7 7 7 7 7 7 7 8 7 6 6 6 6 6 6 5 4 3 3 3 3 3 3 5 8 9 11 7 7 7 8 8 8 9 8 9 9 10 10 9
7 7 7 7 7 7 6 7 7 6 6 6 5 5 5 5 5 5 4 3 3 3 3 3 3 3 5 8 10 10 6 7 9 8 8 8 8 10 12 9 9 10 9
7 7 7 7 7 6 6 7 6 5 5 5 4 4 4 4 4 4 3 3 3 3 3 4 4 4 5 8 10 10 5 7 8 8 8 9 9 12 12 8 8 9 9
7 7 7 6 5 5 5 6 5 4 3 4 4 4 4 4 4 3 3 3 3 4 4 4 4 5 6 8 11 12 6 6 7 7 7 7 12 13 12 9 6 9 10
7 6 6 5 4 4 5 5 3 2 3 3 4 3 3 3 3 4 3 4 4 4 4 4 5 5 6 7 10 13 11 9 6 6 6 7 12 13 12 8 9 12 9
6 5 5 4 4 3 3 3 1 1 3 3 3 3 3 3 3 3 3 2 3 2 3 3 4 6 6 6 10 12 13 14 7 6 10 11 11 10 8 9 11 9 5
5 4 4 4 3 2 2 1 0 1 3 2 2 1 2 2 2 2 1 1 1 1 2 3 5 6 6 7 8 8 8 10 8 7 8 10 9 8 7 7 7 5 5
3 3 3 3 2 2 2 1 1 2 2 2 1 1 1 1 1 1 0 0 1 2 1 2 3 5 6 8 12 8 7 7 7 7 4 5 6 7 7 7 6 6 6
3 3 3 2 2 2 2 2 1 2 3 1 0 0 0 0 0 1 2 2 2 3 3 4 4 4 6 10 12 12 11 11 11 5 4 5 6 6 6 7 6 6 6
Wind_Direction
227 218 214 208 197 192 191 193 187 177 167 166 158 146 137 117 92 87 121 132 134 133 129 129 124 121 117 120 119 106 83 57 39 90 74 49 49 57 49 49 58 56 53
234 221 214 207 202 198 193 190 185 172 167 158 137 114 105 92 100 114 108 119 131 132 138 138 132 125 117 112 108 111 106 66 33 107 113 81 41 42 40 35 58 54 46
231 222 209 207 201 197 191 183 172 154 143 129 117 109 94 82 77 84 91 97 112 115 116 120 121 122 119 119 115 119 126 122 57 39 124 138 202 312 334 357 30 20 35
240 229 207 194 188 185 161 145 136 132 130 129 135 140 145 154 163 144 130 114 110 113 116 122 122 119 114 115 111 101 110 121 117 69 47 78 134 158 308 306 311 327 330
236 148 123 132 127 125 118 118 117 117 119 122 128 132 132 129 118 120 125 116 104 106 115 116 115 112 111 111 108 106 103 107 125 128 115 90 69 92 193 277 302 308 280
67 77 80 86 86 89 97 107 112 112 114 116 122 130 136 137 138 142 137 120 105 99 105 108 106 106 109 113 112 110 107 104 109 114 126 146 158 185 201 243 270 285 282
66 70 74 80 82 85 91 99 106 108 110 113 116 124 129 134 140 142 136 132 123 114 110 108 105 105 105 106 106 103 103 109 116 134 155 179 197 190 198 233 264 272 280
66 67 69 73 77 77 80 87 93 92 90 92 95 100 108 115 121 124 128 130 124 115 111 106 102 100 101 101 97 95 95 94 99 110 138 199 223 208 211 230 266 286 280
65 67 65 63 64 65 63 69 78 77 77 83 91 94 99 103 105 105 105 103 101 106 99 98 96 90 87 89 88 77 68 68 57 48 36 351 297 267 252 246 244 270 291
64 63 61 61 60 62 64 65 71 75 73 74 79 86 86 90 95 96 96 94 92 96 99 91 86 80 75 75 77 74 68 66 45 27 18 349 315 304 292 274 261 250 270
63 64 63 63 65 64 64 66 69 72 72 75 79 80 79 82 84 83 83 87 87 89 89 87 83 79 76 77 77 71 64 57 34 15 358 333 317 311 307 294 282 270 264
64 63 63 63 63 64 65 66 68 73 75 78 79 78 77 78 79 79 77 80 79 77 83 86 86 84 79 74 72 60 47 34 13 354 340 329 325 314 303 296 289 282 271
66 63 61 61 63 65 66 66 66 70 71 75 78 77 75 76 76 75 74 75 77 77 81 84 85 82 77 70 63 55 37 14 349 333 323 314 312 305 300 295 287 282 281
68 67 64 63 64 66 69 71 69 70 75 76 76 74 73 75 76 75 74 74 77 79 78 80 80 76 70 61 48 36 15 351 335 324 313 307 300 291 291 290 286 287 287
70 70 69 69 70 71 71 73 73 72 78 81 79 78 76 75 75 74 73 73 74 78 81 82 79 71 65 51 38 14 354 340 331 324 318 310 306 308 308 307 304 301 293
74 74 73 71 72 74 76 78 77 76 80 83 81 80 79 78 76 75 73 73 72 71 72 68 61 47 37 17 13 5 344 332 324 319 318 314 309 315 318 314 311 308 303
75 74 74 72 73 75 78 81 79 78 78 79 78 76 78 74 68 74 72 69 65 64 59 48 42 29 1 5 2 355 346 326 315 311 311 312 311 315 308 309 311 308 302
77 77 80 81 79 79 77 78 78 78 79 78 76 76 78 76 70 67 65 60 57 55 44 34 26 16 3 5 358 349 341 321 314 309 304 302 306 310 315 312 309 307 303
85 84 83 85 83 78 78 80 74 73 75 75 74 75 79 78 70 63 55 47 54 47 34 29 21 10 351 353 352 352 333 324 321 316 312 310 309 311 317 317 312 311 311
86 87 86 83 79 72 75 77 71 69 68 70 74 74 76 78 73 64 55 45 53 46 36 29 18 7 347 341 345 347 332 326 324 321 319 318 317 317 319 317 309 311 314
89 88 85 79 74 73 77 76 70 63 57 66 73 72 71 80 79 69 58 59 59 48 33 19 0 354 343 337 339 344 339 324 318 317 321 319 321 321 322 319 305 301 306
90 87 86 76 61 64 79 78 66 53 66 74 78 74 66 74 88 83 67 57 54 45 24 6 354 345 339 336 336 338 337 331 316 312 313 314 319 322 323 323 318 318 318
92 84 87 73 52 50 83 89 52 76 84 81 76 74 72 66 79 89 80 58 47 40 12 0 349 339 337 336 337 338 336 337 333 316 317 322 327 330 329 328 329 332 335
91 86 84 75 48 32 57 113 138 127 116 108 91 84 83 66 60 69 82 78 40 20 1 352 344 337 336 341 344 338 334 335 338 331 326 328 335 342 335 334 340 344 343
86 87 91 78 46 36 42 33 94 123 124 131 128 106 94 83 44 26 304 252 246 238 292 318 319 326 330 329 328 330 330 331 328 325 332 350 349 350 348 347 349 351 355
98 95 90 82 52 43 27 15 59 122 133 144 150 113 115 87 37 0 347 331 315 318 311 312 315 303 304 319 331 338 338 342 344 352 352 349 348 345 345 345 347 351 359